DateTime,DeltaTime,Roll,TargetAngle,Position,Power
2022-05-24 15:52:31.048,0,-4.22,9.16,-4,-90
2022-05-24 15:52:31.163,0.115006417036057,3.29,28,-4,-90
2022-05-24 15:52:31.278,0.230002775788307,9.78,28,-4,-90
2022-05-24 15:52:31.393,0.344999134540558,11.96,28,-4,-90
2022-05-24 15:52:31.507,0.45899972319603,8.87,20.75,-4,-81.87
2022-05-24 15:52:31.622,0.574006140232086,2.14,-20,-4,90
2022-05-24 15:52:31.737,0.689002498984337,-5.49,-22,-4,69.07
2022-05-24 15:52:31.851,0.803003087639809,-10.8,-22,-3,66.45
2022-05-24 15:52:31.962,0.914006307721138,-11.4,-22,-4,71.45
2022-05-24 15:52:32.076,1.02800689637661,-7,-5.24,-4,-18.71
2022-05-24 15:52:32.191,1.14300325512886,0.43,28,-4,-90
2022-05-24 15:52:32.307,1.2590054422617,8.1,28,-3,-90
2022-05-24 15:52:32.421,1.37300603091717,12.31,28,-4,-90
2022-05-24 15:52:32.535,1.48700661957264,11.04,28,-4,-90
2022-05-24 15:52:32.650,1.60200297832489,5.13,-5.39,-4,48.91
2022-05-24 15:52:32.764,1.71600356698036,-2.94,-22,-4,88.23
2022-05-24 15:52:32.880,1.8320057541132,-9.84,-22,-4,66.45
2022-05-24 15:52:32.994,1.94600634276867,-12.4,-22,-4,66.45
2022-05-24 15:52:33.109,2.06100270152092,-9.66,-22,-4,66.45
2022-05-24 15:52:33.224,2.17599906027317,-2.99,19.61,-4,-90
2022-05-24 15:52:33.338,2.28999964892864,5.19,28,-4,-90
2022-05-24 15:52:33.453,2.4050060659647,11.14,28,-4,-90
2022-05-24 15:52:33.568,2.52000242471695,12.07,28,-3,-90
2022-05-24 15:52:33.682,2.63400301337242,7.68,10.72,-4,-26.68
2022-05-24 15:52:33.797,2.74899937212467,0.22,-22,-4,90
2022-05-24 15:52:33.912,2.86400578916073,-7.29,-22,-4,66.45
2022-05-24 15:52:34.021,2.97300741076469,-11.8,-22,-4,66.45
2022-05-24 15:52:34.136,3.08800376951694,-11.23,-22,-4,66.45
2022-05-24 15:52:34.251,3.2030001282692,-5.96,2.43,-4,-55.75
2022-05-24 15:52:34.365,3.31700071692467,1.92,28,-3,-90
2022-05-24 15:52:34.481,3.4330029040575,9.07,28,-3,-90
2022-05-24 15:52:34.596,3.54799926280975,12.03,28,-4,-90
2022-05-24 15:52:34.710,3.66199985146523,9.62,26.57,-4,-90
2022-05-24 15:52:34.824,3.7760004401207,3.25,-14.35,-4,90
2022-05-24 15:52:34.939,3.89100685715675,-4.44,-22,-3,76.48
2022-05-24 15:52:35.054,4.006003215909,-10.24,-22,-4,71.45
2022-05-24 15:52:35.169,4.12099957466125,-11.63,-22,-3,65.14
2022-05-24 15:52:35.285,4.23700176179409,-8,-12.26,-3,22.72
2022-05-24 15:52:35.398,4.35000658035278,-1.06,27.91,-4,-90
2022-05-24 15:52:35.513,4.46500293910503,6.4,28,-4,-90
2022-05-24 15:52:35.628,4.57999929785728,10.97,28,-4,-90
2022-05-24 15:52:35.742,4.69399988651276,10.5,28,-3,-90
2022-05-24 15:52:35.856,4.80800047516823,5.57,0.54,-4,24.26
2022-05-24 15:52:35.972,4.92400266230106,-1.47,-22,-4,90
2022-05-24 15:52:36.082,5.03400005400181,-7.92,-22,-4,66.45
2022-05-24 15:52:36.196,5.14800064265728,-10.9,-22,-4,66.45
2022-05-24 15:52:36.312,5.26400282979012,-9.04,-22,-4,66.45
2022-05-24 15:52:36.426,5.37800341844559,-3.32,14.19,-3,-90
2022-05-24 15:52:36.541,5.49299977719784,3.9,28,-3,-90
2022-05-24 15:52:36.655,5.60700036585331,9.39,28,-4,-90
2022-05-24 15:52:36.771,5.72300255298615,10.55,28,-4,-90
2022-05-24 15:52:36.885,5.83700314164162,7.06,12.31,-4,-39.64
2022-05-24 15:52:37.000,5.95199950039387,0.83,-22,-4,90
2022-05-24 15:52:37.114,6.06600008904934,-5.76,-22,-4,66.45
2022-05-24 15:52:37.229,6.1810065060854,-9.84,-22,-3,66.45
2022-05-24 15:52:37.344,6.29600286483765,-9.47,-22,-4,71.45
2022-05-24 15:52:37.458,6.41000345349312,-4.93,3.1,-4,-60.45
2022-05-24 15:52:37.573,6.52499981224537,1.87,28,-4,-90
2022-05-24 15:52:37.688,6.64000622928143,8.01,28,-3,-90
2022-05-24 15:52:37.802,6.7540068179369,10.46,28,-4,-90
2022-05-24 15:52:37.916,6.86800740659237,8.2,21.93,-4,-89.07
2022-05-24 15:52:38.028,6.98000639677048,2.65,-12.97,-4,78.85
2022-05-24 15:52:38.142,7.09400698542595,-3.97,-22,-4,78.29
2022-05-24 15:52:38.256,7.20800757408142,-8.78,-22,-4,66.45
2022-05-24 15:52:38.372,7.32399970293045,-9.62,-22,-4,66.45
2022-05-24 15:52:38.486,7.43800029158592,-6.02,-5.03,-3,-18.45
2022-05-24 15:52:38.601,7.55300670862198,0.23,28,-4,-90
2022-05-24 15:52:38.715,7.66700729727745,6.74,28,-4,-90
2022-05-24 15:52:38.831,7.78299942612648,10.24,28,-3,-90
2022-05-24 15:52:38.945,7.89700001478195,9.06,28,-4,-90
2022-05-24 15:52:39.060,8.01200643181801,4.18,-4.41,-4,42.72
2022-05-24 15:52:39.175,8.12700279057026,-2.43,-22,-4,89.55
2022-05-24 15:52:39.289,8.24100337922573,-7.92,-22,-4,66.45
2022-05-24 15:52:39.404,8.35599973797798,-9.82,-22,-4,66.45
2022-05-24 15:52:39.519,8.47100615501404,-7.16,-13.35,-4,23.17
2022-05-24 15:52:39.633,8.58500674366951,-1.24,22.76,-4,-90
2022-05-24 15:52:39.748,8.70000310242176,5.53,28,-4,-90
2022-05-24 15:52:39.862,8.81400369107723,9.97,28,-4,-90
2022-05-24 15:52:39.973,8.92500691115856,9.88,28,-3,-90
2022-05-24 15:52:40.089,9.04099904000759,5.6,3.5,-4,9.42
2022-05-24 15:52:40.203,9.15499962866306,-0.87,-22,-4,90
2022-05-24 15:52:40.318,9.27000604569912,-7.09,-22,-3,66.45
2022-05-24 15:52:40.432,9.38400663435459,-10.12,-22,-4,71.45
2022-05-24 15:52:40.547,9.49900299310684,-8.47,-22,-4,65.14
2022-05-24 15:52:40.661,9.61300358176231,-3.04,13.96,-3,-90
2022-05-24 15:52:40.776,9.72799994051456,4.07,28,-3,-90
2022-05-24 15:52:40.890,9.84200052917004,9.55,28,-3,-90
2022-05-24 15:52:41.005,9.95700694620609,10.74,28,-4,-90
2022-05-24 15:52:41.120,10.0720033049583,7.26,13.12,-4,-45.02
2022-05-24 15:52:41.235,10.1869996637106,0.86,-22,-4,90
2022-05-24 15:52:41.350,10.3020060807467,-6,-22,-4,66.45
2022-05-24 15:52:41.464,10.4160066694021,-10.15,-22,-4,66.45
2022-05-24 15:52:41.579,10.5310030281544,-9.74,-22,-4,66.45
2022-05-24 15:52:41.693,10.6450036168098,-4.91,4.46,-4,-65.92
2022-05-24 15:52:41.804,10.7560068368912,2.17,28,-4,-90
2022-05-24 15:52:41.918,10.8700074255466,8.69,28,-4,-90
2022-05-24 15:52:42.034,10.9859995543957,11.33,28,-4,-90
2022-05-24 15:52:42.147,11.0990043729544,9.01,24.64,-4,-90
2022-05-24 15:52:42.262,11.2140007317066,3,-13.65,-4,85.83
2022-05-24 15:52:42.378,11.3300029188395,-4.34,-22,-4,77.4
2022-05-24 15:52:42.491,11.4430077373981,-9.73,-22,-4,66.45
2022-05-24 15:52:42.607,11.5589998662472,-10.85,-22,-4,66.45
2022-05-24 15:52:42.721,11.6730004549026,-7.09,-8.3,-3,-2.1
2022-05-24 15:52:42.836,11.7880068719387,-0.33,28,-4,-90
2022-05-24 15:52:42.951,11.903003230691,6.92,28,-3,-90
2022-05-24 15:52:43.065,12.0170038193464,11.25,28,-4,-90
2022-05-24 15:52:43.180,12.1320001780987,10.55,28,-3,-90
2022-05-24 15:52:43.294,12.2460007667542,5.47,-0.46,-4,29.25
2022-05-24 15:52:43.410,12.362002953887,-1.88,-22,-4,90
2022-05-24 15:52:43.525,12.4769993126392,-8.57,-22,-4,66.45
2022-05-24 15:52:43.639,12.5909999012947,-11.47,-22,-4,66.45
2022-05-24 15:52:43.749,12.7010073512793,-9.38,-22,-3,66.45
2022-05-24 15:52:43.863,12.8150079399347,-3.2,16.67,-4,-90
2022-05-24 15:52:43.979,12.9310000687838,4.47,28,-4,-90
2022-05-24 15:52:44.093,13.0450006574392,10.33,28,-4,-90
2022-05-24 15:52:44.208,13.1600070744753,11.66,28,-4,-90
2022-05-24 15:52:44.322,13.2740076631308,7.96,14.72,-4,-51.71
2022-05-24 15:52:44.438,13.3899997919798,1.07,-22,-3,90
2022-05-24 15:52:44.552,13.5040003806353,-6.39,-22,-4,71.45
2022-05-24 15:52:44.667,13.6190067976713,-11.05,-22,-4,65.14
2022-05-24 15:52:44.782,13.7340031564236,-10.94,-22,-4,66.45
2022-05-24 15:52:44.896,13.848003745079,-6.1,0.07,-3,-43.95
2022-05-24 15:52:45.010,13.9620043337345,1.39,28,-4,-90
2022-05-24 15:52:45.125,14.0770006924868,8.54,28,-4,-90
2022-05-24 15:52:45.240,14.1920071095228,11.93,28,-4,-90
2022-05-24 15:52:45.355,14.3070034682751,10.1,28,-4,-90
2022-05-24 15:52:45.469,14.4210040569305,4.14,-9.27,-4,68.33
2022-05-24 15:52:45.584,14.5360004156828,-3.57,-22,-4,83.14
2022-05-24 15:52:45.699,14.6510068327188,-9.71,-22,-5,66.45
2022-05-24 15:52:45.809,14.7610042244196,-11.73,-22,-3,61.44
2022-05-24 15:52:45.924,14.8760005831718,-8.59,-16.62,-4,45.87
2022-05-24 15:52:46.039,14.9910070002079,-1.92,23.54,-4,-90
2022-05-24 15:52:46.153,15.1050075888634,5.7,28,-4,-90
2022-05-24 15:52:46.268,15.2200039476156,10.95,28,-4,-90
2022-05-24 15:52:46.382,15.3340045362711,11.22,28,-3,-90
2022-05-24 15:52:46.498,15.4500067234039,6.69,6.43,-3,-5.21
2022-05-24 15:52:46.613,15.5650030821562,-0.57,-22,-3,90
2022-05-24 15:52:46.726,15.6780079007149,-7.74,-22,-4,70.14
2022-05-24 15:52:46.841,15.7930042594671,-11.57,-22,-4,65.14
2022-05-24 15:52:46.955,15.9070048481226,-10.46,-22,-4,66.45
2022-05-24 15:52:47.071,16.0230070352554,-4.88,7.85,-4,-82.87
2022-05-24 15:52:47.185,16.1370076239109,2.78,28,-4,-90
2022-05-24 15:52:47.300,16.2520039826632,9.31,28,-4,-90
2022-05-24 15:52:47.415,16.3670003414154,11.64,28,-4,-90
2022-05-24 15:52:47.530,16.4820067584515,8.82,21.75,-3,-86.88
2022-05-24 15:52:47.644,16.5960073471069,2.42,-17.51,-4,90
2022-05-24 15:52:47.755,16.7070005089045,-5.15,-22,-4,71.03
2022-05-24 15:52:47.869,16.8210010975599,-10.56,-22,-3,66.45
2022-05-24 15:52:47.984,16.936007514596,-11.44,-22,-3,71.45
2022-05-24 15:52:48.101,17.0530054718256,-7.38,-8.11,-3,0.67
2022-05-24 15:52:48.213,17.1650044620037,-0.24,28,-4,-90
2022-05-24 15:52:48.328,17.280000820756,7.21,28,-3,-90
2022-05-24 15:52:48.443,17.395007237792,11.37,28,-4,-90
2022-05-24 15:52:48.558,17.5100035965443,10.39,28,-4,-90
2022-05-24 15:52:48.671,17.623008415103,4.96,-3.88,-4,41.34
2022-05-24 15:52:48.786,17.7380047738552,-2.5,-22,-4,90
2022-05-24 15:52:48.902,17.854006960988,-8.97,-22,-4,66.45
2022-05-24 15:52:49.016,17.9680075496435,-11.6,-22,-4,66.45
2022-05-24 15:52:49.131,18.0830039083958,-9.16,-21.73,-4,65.07
2022-05-24 15:52:49.246,18.198000267148,-2.83,18.64,-4,-90
2022-05-24 15:52:49.360,18.3120008558035,4.74,28,-4,-90
2022-05-24 15:52:49.475,18.4270072728395,10.31,28,-4,-90
2022-05-24 15:52:49.590,18.5420036315918,11.12,28,-4,-90
2022-05-24 15:52:49.705,18.656999990344,7.1,10.15,-4,-28.85
2022-05-24 15:52:49.815,18.7670074403286,0.1,-22,-4,90
2022-05-24 15:52:49.930,18.8820037990808,-7.11,-22,-3,66.45
2022-05-24 15:52:50.044,18.9960043877363,-11.21,-22,-4,71.45
2022-05-24 15:52:50.159,19.1110007464886,-10.48,-22,-4,65.14
2022-05-24 15:52:50.274,19.2260071635246,-5.21,5.23,-4,-69.74
2022-05-24 15:52:50.388,19.3400077521801,2.22,28,-3,-90
2022-05-24 15:52:50.503,19.4550041109324,8.75,28,-3,-90
2022-05-24 15:52:50.619,19.5710062980652,11.29,28,-3,-90
2022-05-24 15:52:50.733,19.6850068867207,8.67,22.11,-3,-84.97
2022-05-24 15:52:50.847,19.7990074753761,2.52,-16.09,-4,90
2022-05-24 15:52:50.962,19.9140038341284,-4.75,-22,-4,72.89
2022-05-24 15:52:51.077,20.0290001928806,-10.04,-22,-3,66.45
2022-05-24 15:52:51.191,20.1430007815361,-10.96,-22,-4,71.45
2022-05-24 15:52:51.306,20.2580071985722,-7.04,-7.47,-4,-7.53
2022-05-24 15:52:51.420,20.3720077872276,-0.06,28,-4,-90
2022-05-24 15:52:51.535,20.4870041459799,7.03,28,-4,-90
2022-05-24 15:52:51.650,20.6020005047321,10.88,28,-4,-90
2022-05-24 15:52:51.760,20.7120079547167,9.78,28,-4,-90
2022-05-24 15:52:51.875,20.8270043134689,4.55,-4.53,-4,44.59
2022-05-24 15:52:51.989,20.9410049021244,-2.66,-22,-4,89.41
2022-05-24 15:52:52.104,21.0560012608767,-8.77,-22,-3,66.45
2022-05-24 15:52:52.219,21.1710076779127,-11.07,-22,-4,71.45
2022-05-24 15:52:52.333,21.2850082665682,-8.41,-17.98,-3,45.04
2022-05-24 15:52:52.449,21.4010003954172,-2.1,21.3,-4,-90
2022-05-24 15:52:52.563,21.5150009840727,5.22,28,-3,-90
2022-05-24 15:52:52.678,21.6300074011087,10.27,28,-4,-90
2022-05-24 15:52:52.793,21.745003759861,10.57,28,-4,-90
2022-05-24 15:52:52.906,21.8580085784197,6.31,6.24,-4,-9.27
2022-05-24 15:52:53.022,21.9740007072687,-0.5,-22,-4,90
2022-05-24 15:52:53.137,22.0890071243048,-7.27,-22,-4,66.45
2022-05-24 15:52:53.251,22.2030077129602,-10.76,-22,-4,66.45
2022-05-24 15:52:53.366,22.3180040717125,-9.44,-22,-4,66.45
2022-05-24 15:52:53.481,22.4330004304647,-3.87,11.51,-3,-90
2022-05-24 15:52:53.595,22.5470010191202,3.48,28,-4,-90
2022-05-24 15:52:53.706,22.6580042392015,9.43,28,-4,-90
2022-05-24 15:52:53.820,22.772004827857,11.14,28,-4,-90
2022-05-24 15:52:53.935,22.8870011866093,7.85,16.19,-4,-59.07
2022-05-24 15:52:54.050,23.0020076036453,1.49,-20.85,-4,90
2022-05-24 15:52:54.164,23.1160081923008,-5.64,-22,-4,67.96
2022-05-24 15:52:54.280,23.2320003211498,-10.3,-22,-4,66.45
2022-05-24 15:52:54.394,23.3460009098053,-10.34,-22,-4,66.45
2022-05-24 15:52:54.509,23.4610073268414,-5.67,0.89,-4,-48.09
2022-05-24 15:52:54.623,23.5750079154968,1.6,28,-4,-90
2022-05-24 15:52:54.739,23.6910000443459,8.39,28,-4,-90
2022-05-24 15:52:54.853,23.8050006330013,11.48,28,-4,-90
2022-05-24 15:52:54.967,23.9190012216568,9.42,27.32,-4,-90
2022-05-24 15:52:55.081,24.0330018103123,3.54,-11.08,-4,76.51
2022-05-24 15:52:55.197,24.1490039974451,-3.83,-22,-4,80.76
2022-05-24 15:52:55.314,24.2660019546747,-9.56,-22,-4,66.45
2022-05-24 15:52:55.426,24.3780009448528,-10.99,-22,-4,66.45
2022-05-24 15:52:55.541,24.4930073618889,-7.39,-10.16,-4,7.24
2022-05-24 15:52:55.651,24.6030047535896,-0.48,28,-4,-90
2022-05-24 15:52:55.765,24.7170053422451,7.01,28,-4,-90
2022-05-24 15:52:55.881,24.8330075293779,11.61,28,-4,-90
2022-05-24 15:52:55.995,24.9470081180334,11.08,28,-4,-90
2022-05-24 15:52:56.110,25.0620044767857,5.98,1.27,-3,15.58
2022-05-24 15:52:56.224,25.1760050654411,-1.55,-22,-4,90
2022-05-24 15:52:56.339,25.2910014241934,-8.42,-22,-4,65.14
2022-05-24 15:52:56.454,25.4060078412294,-11.56,-22,-3,66.45
2022-05-24 15:52:56.570,25.5219999700785,-9.51,-22,-3,71.45
2022-05-24 15:52:56.683,25.6350047886372,-3.19,17.29,-3,-90
2022-05-24 15:52:56.798,25.7500011473894,4.76,28,-4,-90
2022-05-24 15:52:56.913,25.8650075644255,10.91,28,-4,-90
2022-05-24 15:52:57.027,25.9790081530809,12.39,28,-4,-90
2022-05-24 15:52:57.143,26.09500028193,8.59,16.64,-4,-61.29
2022-05-24 15:52:57.257,26.2090008705854,1.55,-22,-4,90
2022-05-24 15:52:57.372,26.3240072876215,-6.28,-22,-4,66.45
2022-05-24 15:52:57.486,26.438007876277,-11.26,-22,-3,66.45
2022-05-24 15:52:57.597,26.5490010380745,-11.28,-22,-4,71.45
2022-05-24 15:52:57.711,26.66300162673,-6.26,0.26,-4,-46.21
2022-05-24 15:52:57.826,26.778008043766,1.59,28,-4,-90
2022-05-24 15:52:57.941,26.8930044025183,9.01,28,-4,-90
2022-05-24 15:52:58.054,27.0059991627932,12.67,28,-4,-90
2022-05-24 15:52:58.170,27.122001349926,10.92,28,-4,-90
2022-05-24 15:52:58.284,27.2360019385815,4.84,-7.17,-4,57.79
2022-05-24 15:52:58.399,27.3510083556175,-3.05,-22,-3,85.91
2022-05-24 15:52:58.514,27.4660047143698,-9.66,-22,-3,71.45
2022-05-24 15:52:58.630,27.5820069015026,-12,-22,-4,70.14
2022-05-24 15:52:58.743,27.6950016617775,-9.08,-19.33,-4,51.78
2022-05-24 15:52:58.858,27.8100080788136,-2.27,22.84,-4,-90
2022-05-24 15:52:58.973,27.9250044375658,5.69,28,-4,-90
2022-05-24 15:52:59.088,28.0400007963181,11.38,28,-4,-90
2022-05-24 15:52:59.203,28.1550072133541,12.11,28,-4,-90
2022-05-24 15:52:59.316,28.268001973629,7.83,11.72,-3,-36.69
2022-05-24 15:52:59.431,28.3830083906651,0.67,-22,-4,90
2022-05-24 15:52:59.546,28.4980047494173,-6.72,-22,-4,65.14
2022-05-24 15:52:59.657,28.6090079694986,-11.18,-22,-3,66.45
2022-05-24 15:52:59.772,28.7240043282509,-10.77,-22,-3,71.45
2022-05-24 15:52:59.886,28.8380049169064,-5.64,3,-3,-54.93
2022-05-24 15:53:00.001,28.9530012756586,1.84,28,-4,-90
2022-05-24 15:53:00.115,29.0670018643141,8.7,28,-3,-90
2022-05-24 15:53:00.231,29.1830040514469,11.82,28,-4,-90
2022-05-24 15:53:00.345,29.2970046401024,9.91,28,-4,-90
2022-05-24 15:53:00.460,29.4120009988546,4.21,-7.81,-4,60.99
2022-05-24 15:53:00.574,29.5260015875101,-3.13,-22,-4,85.06
2022-05-24 15:53:00.689,29.6410080045462,-9.11,-22,-5,66.45
2022-05-24 15:53:00.804,29.7560043632984,-11.09,-22,-4,61.44
2022-05-24 15:53:00.918,29.8700049519539,-8.22,-16.43,-4,39.91
2022-05-24 15:53:01.033,29.9850013107061,-1.85,22.47,-4,-90
2022-05-24 15:53:01.148,30.1000077277422,5.36,28,-3,-90
2022-05-24 15:53:01.262,30.2140083163977,10.26,28,-4,-90
2022-05-24 15:53:01.378,30.3300004452467,10.76,28,-4,-90
2022-05-24 15:53:01.492,30.4440010339022,6.83,9.56,-4,-25.9
